COSMOS 2544 (759)

Last updated on Sun Apr 12 2026 00:03:25 GMT+0000 (Coordinated Universal Time)

1 44850U 19088A 26101.39416108 .00000050 00000+0 00000+0 0 9992 2 44850 65.5295 75.9591 0015368 261.1809 98.6427 2.13102942 49295
UTC large
Height (km)
Speed (km/s)
/
Latitude / Longitude
Inclination (degrees)
Orbital Period (minutes)
Azimuth
Elevation
Range (km)
Doppler Factor

Next 0 passes for location: London (51.5072 / 0.1276)

Sorry there are no passes over London.
COSMOS 2544 (759)